This demonstration page uses our WeatherBlox Daily Observations layout. Learn more.

Left ArrowRight Arrow

Hourly Observations for May 27, 2016

Temp ( °F °C ) Dew Point ( °F °C ) Humidity (%) Winds ( mph kmh ) Pressure ( in mb ) Visibility ( mi km ) Precip ( " mm )
12:31 am 00:31 Cloudy with Light Rain 61 16.1 57 13.9 87 87 SSE 13 20 29.77 1008 10 16 0.00 0.03
12:54 am 00:54 Cloudy with Light Rain 61 16.1 58 14.4 90 90 S 10 17 29.77 1008 10 16 0.01 0.25
1:42 am 01:42 Cloudy 63 17 59 15 88 88 S 9 15 29.77 1008 10 16 0.00 0.00
1:54 am 01:54 Cloudy 62 16.7 59 15 90 90 S 12 19 29.78 1008 10 16 0.00 0.03
2:54 am 02:54 Cloudy with Light Rain 62 16.7 59 15 90 90 SE 13 20 29.77 1008 10 16 0.00 0.03
3:08 am 03:08 Cloudy with Light Rain 63 17 59 15 88 88 ESE 12 19 29.74 1007 10 16 0.00 0.00
3:54 am 03:54 Partly Cloudy 62 16.7 59 15 90 90 E 17 28 29.65 1004 10 16 0.00 0.03
4:07 am 04:07 Partly Cloudy 63 17 59 15 88 88 ESE 10 17 29.65 1004 10 16 0.00 0.00
4:16 am 04:16 Mostly Cloudy 62 16.7 59 15 90 90 S 10 17 29.65 1004 10 16 0.00 0.00
4:35 am 04:35 Cloudy 63 17 59 15 88 88 VRB 3 6 29.65 1004 10 16 0.00 0.00
4:54 am 04:54 Mostly Cloudy 61 16.1 58 14.4 90 90 SSE 5 7 29.65 1004 10 16 0.00 0.00
5:14 am 05:14 Mostly Clear 61 16.1 58 14.4 90 90 SSW 6 9 29.65 1004 10 16 0.00 0.00
5:54 am 05:54 Clear 60 15.6 58 14.4 93 93 N 7 11 29.66 1005 10 16 0.00 0.00
6:54 am 06:54 Sunny 60 15.6 58 14.4 93 93 NE 8 13 29.72 1006 10 16 0.00 0.00
7:54 am 07:54 Sunny 63 17.2 59 15 87 87 ENE 9 15 29.73 1007 10 16 0.00 0.00
8:54 am 08:54 Partly Cloudy 66 18.9 60 15.6 81 81 NE 8 13 29.74 1007 10 16 0.00 0.00
9:19 am 09:19 Mostly Cloudy 66 18.9 59 15 78 78 ENE 9 15 29.74 1007 10 16 0.00 0.00
9:39 am 09:39 Mostly Cloudy 67 19.4 59 15 76 76 ENE 9 15 29.74 1007 10 16 0.00 0.00
9:54 am 09:54 Partly Cloudy 67 19.4 59 15 76 76 ENE 7 11 29.76 1008 10 16 0.00 0.00
10:03 am 10:03 Mostly Cloudy 66 19 59 15 78 78 ENE 5 7 29.74 1007 10 16 0.00 0.00
10:54 am 10:54 Mostly Cloudy 69 20.6 58 14.4 68 68 VRB 6 9 29.74 1007 8 13 0.00 0.00
11:54 am 11:54 Cloudy 68 20 59 15 73 73 WSW 6 9 29.77 1008 10 16 0.01 0.25
12:54 pm 12:54 Cloudy 70 21.1 60 15.6 71 71 W 5 7 29.76 1008 10 16 0.00 0.00
1:54 pm 13:54 Sunny 73 22.8 60 15.6 64 64 Calm 29.73 1007 10 16 0.00 0.00
2:54 pm 14:54 Sunny 76 24.4 59 15 56 56 VRB 3 6 29.71 1006 10 16 0.00 0.00
3:54 pm 15:54 Mostly Sunny 76 24.4 60 15.6 58 58 NE 7 11 29.68 1005 10 16 0.00 0.00
4:54 pm 16:54 Cloudy 75 23.9 61 16.1 62 62 ENE 7 11 29.67 1005 10 16 0.00 0.00
5:54 pm 17:54 Cloudy 75 23.9 60 15.6 60 60 ESE 8 13 29.65 1004 10 16 0.00 0.00
6:54 pm 18:54 Cloudy 73 22.8 61 16.1 66 66 ESE 16 26 29.65 1004 10 16 0.00 0.00
7:30 pm 19:30 Cloudy with Thunderstorms 70 21 63 17 78 78 SE 18 30 29.62 1003 8 13 0.00 0.00
7:43 pm 19:43 Cloudy with Nearby Thunderstorms 68 20 62 16.7 81 81 E 12 19 29.65 1004 3 4 0.04 1.02
7:54 pm 19:54 Cloudy with Nearby Thunderstorms 67 19.4 63 17.2 87 87 E 9 15 29.65 1004 10 16 0.11 2.79
8:12 pm 20:12 Cloudy 68 20 64 18 88 88 E 8 13 29.65 1004 10 16 0.00 0.00
8:21 pm 20:21 Cloudy with Nearby Thunderstorms 68 20 64 18 88 88 E 9 15 29.59 1002 10 16 0.00 0.00
8:37 pm 20:37 Cloudy with Thunderstorms 66 18.9 62 16.7 87 87 SW 20 31 29.68 1005 4 6 0.01 0.25
8:42 pm 20:42 Cloudy with Strong Thunderstorms 63 17 59 15 88 88 W 17 28 29.65 1004 2 3 0.00 0.00
8:44 pm 20:44 Cloudy with Strong Thunderstorms 63 17 59 15 88 88 W 17 28 29.65 1004 1 2 0.00 0.00
8:49 pm 20:49 Cloudy with Strong Thunderstorms 63 17 61 16 94 94 S 14 22 29.68 1005 1 2 0.23 5.84
8:54 pm 20:54 Cloudy with Strong Thunderstorms 62 16.7 60 15.6 93 93 W 12 19 29.69 1005 1 1 0.53 13.46
8:58 pm 20:58 Cloudy with Strong Thunderstorms 62 16.7 60 15.6 93 93 WNW 12 19 29.68 1005 1 1 0.13 3.30
9:07 pm 21:07 Cloudy with Strong Thunderstorms 62 16.7 60 15.6 93 93 W 15 24 29.68 1005 2 3 0.27 6.86
9:09 pm 21:09 Cloudy with Strong Thunderstorms 62 16.7 60 15.6 93 93 WSW 17 28 29.71 1006 2 3 0.29 7.37
9:13 pm 21:13 Cloudy with Strong Thunderstorms 62 16.7 60 15.6 93 93 WSW 14 22 29.71 1006 2 3 0.35 8.89
9:17 pm 21:17 Cloudy with Strong Thunderstorms 63 17 61 16 94 94 WSW 15 24 29.71 1006 2 3 0.00 0.00
9:26 pm 21:26 Cloudy with Thunderstorms 63 17 59 15 88 88 WNW 17 28 29.71 1006 4 6 0.00 0.00
9:34 pm 21:34 Cloudy with Nearby Thunderstorms 61 16 57 14 88 88 W 15 24 29.71 1006 5 8 0.00 0.00
9:54 pm 21:54 Cloudy with Heavy Rain 60 15.6 57 13.9 90 90 WNW 13 20 29.74 1007 4 6 0.47 11.94
10:54 pm 22:54 Cloudy with Light Rain 61 16.1 57 13.9 87 87 NNW 12 19 29.74 1007 9 14 0.08 2.03
11:54 pm 23:54 Cloudy 62 16.7 58 14.4 86 86 NNE 6 9 29.71 1006 10 16 0.01 0.25

Powered by AerisWeather